Location: Hilde
(52.9479°N, 6.4449°E)
Time: 10:41:39
(UTC+00:00)

Cosmos 1437 Rocket - Pass Details

Date: 15 May 2026
Orbit: 439 x 476 km, 81.2° (Epoch: 6 June)

Event Time Altitude Azimuth Distance (km) Brightness Sun altitude
Exits shadow 20:02:32 - 161° (SSE) 2,160 5.3 -5.2°
Reaches altitude 10° 20:03:57 10° 152° (SSE) 1,627 4.6 -5.4°
Maximum altitude 20:07:01 27° 93° (E) 937 3.6 -5.7°
Drops below altitude 10° 20:10:07 10° 34° (NE) 1,655 5.4 -6.0°
Sets 20:12:25 0° 22° (NNE) 2,544 6.5 -6.3°
